Regional Weather Roundup
Issued by NWS Kansas City/Pleasant Hill, MO

Home | Current Version | Previous Version | Graphics & Text | Print | Product List | Glossary Off
Versions: 1 2 3 4 5 6 7 8 9 10 11 12 13 14 15 16 17 18 19 20 21 22 23 24 25 26 27 28 29 30 31 32 33 34 35 36 37 38 39 40 41 42 43 44 45 46 47 48 49 50

000
ASUS43 KEAX 241210
RWREAX

WEATHER ROUNDUP FOR EASTERN KANSAS AND NORTHWEST MISSOURI
NATIONAL WEATHER SERVICE KANSAS CITY/PLEASANT HILL MO
600 AM CST TUE JAN 24 2017

KSZ040-057-103>105-MOZ028-029-037-043-241300-
...KANSAS CITY METROPOLITAN AREA...

CITY           SKY/WX    TMP DP  RH WIND       PRES   REMARKS
K.C. INTL      CLOUDY    31  28  89 E17       29.75R WCI  19
6HR MIN TEMP:  31; 6HR MAX TEMP:  32;

K.C. DOWNTOWN  CLOUDY    33  30  88 E12       29.75F WCI  24
6HR MIN TEMP:  31; 6HR MAX TEMP:  33;

LEES SUMMIT    CLOUDY    31  52 100 E13       29.74F WCI  21
6HR MIN TEMP:  29; 6HR MAX TEMP:  31;

OLATHE - IXD   CLOUDY    33  30  88 E13       29.70F WCI  24
6HR MIN TEMP:  32; 6HR MAX TEMP:  33;

OLATHE - OJC   MOCLDY    31  30  96 E13       29.71F WCI  21
6HR MIN TEMP:  31; 6HR MAX TEMP:  32;

LAWRENCE       CLOUDY    33  31  92 E13       29.70F WCI  24

$$

MOZ001>008-011>017-020>025-030>033-038>040-044>046-053-054-241300-
...NORTHERN AND CENTRAL MISSOURI...

CITY           SKY/WX    TMP DP  RH WIND       PRES   REMARKS
ST. JOSEPH     CLOUDY    31  31 100 SE14      29.77F FOG     WCI  21
6HR MIN TEMP:  29; 6HR MAX TEMP:  31;

MOSBY          CLOUDY    32  32 100 E10       29.78S WCI  24
WARRENSBURG    PTCLDY    30  30 100 E14       29.77F FOG     WCI  20
WHITEMAN AFB   MOCLDY    30  30 100 E13G18    29.77F WCI  20
6HR MIN TEMP:  28; 6HR MAX TEMP:  30;

CLINTON        MOCLDY    32  32 100 E10       29.77F FOG     WCI  24
SEDALIA        FOG       31  30  96 E9        29.82F VSB 1/2 WCI  23
6HR MIN TEMP:  28; 6HR MAX TEMP:  31;

WARSAW         NOT AVBL
CHILLICOTHE      N/A     32  29  88 E8        29.83F WCI  25
6HR MIN TEMP:  26; 6HR MAX TEMP:  33;

KIRKSVILLE     CLOUDY    31  29  92 SE8       29.86F WCI  23
6HR MIN TEMP:  31; 6HR MAX TEMP:  32;


$$

MOZ041-047>049-056>058-063>065-088>090-097-241300-
...EASTERN AND SOUTHERN MISSOURI...

CITY           SKY/WX    TMP DP  RH WIND       PRES   REMARKS
ST. LOUIS INTL CLOUDY    40  31  70 CALM      29.91R
6HR MIN TEMP:  38; 6HR MAX TEMP:  41;

SPIRIT OF STL  CLOUDY    38  35  89 CALM      29.90S
COLUMBIA       CLOUDY    32  31  96 E7        29.85S WCI  26
JEFFERSON CITY CLEAR     27  25  92 CALM      29.87F FOG
ROLLA          CLEAR     30  29  96 SE10      29.83F FOG     WCI  21
OSAGE BEACH    CLEAR     29  28  96 E7        29.84F FOG     WCI  22
SPRINGFIELD    CLEAR     39  32  76 SE17      29.73F WCI  30
BRANSON        CLEAR     32  32 100 SE14      29.78F WCI  22
JOPLIN         CLEAR     41  34  76 E14       29.66F WCI  33
WEST PLAINS    CLEAR     32  30  92 SE6       29.85F WCI  26

$$

IAZ060-094-KSZ022-034>040-054-083-096-NEZ052-066-093-241300-
...KANSAS...SOUTHEAST NEBRASKA AND IOWA...

CITY           SKY/WX    TMP DP  RH WIND       PRES   REMARKS
TOPEKA         PTCLDY    34  30  85 E15       29.67F WCI  24
6HR MIN TEMP:  32; 6HR MAX TEMP:  34;

MANHATTAN      CLEAR     35  31  85 E9        29.61F WCI  28
EMPORIA        CLEAR     35  32  88 E13       29.60F WCI  26
CHANUTE        CLEAR     40  32  73 E13       29.62F WCI  32
WICHITA        CLEAR     39  32  76 S10       29.53S WCI  32
OMAHA          CLOUDY    30  26  85 E12       29.77F WCI  20
LINCOLN        CLOUDY    31  30  96 E9        29.72F FOG     WCI  23
FALLS CITY     CLOUDY    31  29  92 E16       29.72F WCI  20
LAMONI         CLOUDY    29  27  92 E9        29.81S WCI  20
DES MOINES     CLOUDY    32  28  85 SE10      29.85S WCI  24

$$




USA.gov is the U.S. government's official web portal to all federal, state and local government web resources and services.